When you browse on this site, cookies collect data to enhance your experience and personalize the content and advertising you see.
Visit our Privacy Policy to learn more. By continuing to use the site, you agree to this use of cookies and data.
  • In France
  • List of Countries
  • For 7 days
  • Water Temperature
  • Weather Map
  • Weather Widgets
  • user-avatar
    Login

    Hourly Weather Essen

    Today, 25 January, Saturday

    Time Temperature Precipitation Wind Pressure Humidity
    00:00 +1°C° 0 mm 1 mps 759 mmHg 67%
    01:00 +1°C° 0 mm 1 mps 758 mmHg 68%
    02:00 +1°C° 0 mm 1 mps 758 mmHg 69%
    03:00 +1°C° 0 mm 1 mps 758 mmHg 69%
    04:00 +1°C° 0 mm 1 mps 758 mmHg 69%
    05:00 +1°C° 0 mm 1 mps 758 mmHg 69%
    06:00 0°C° 0 mm 1 mps 758 mmHg 69%
    07:00 +1°C° 0 mm 1 mps 758 mmHg 66%
    08:00 +2°C° 0 mm 1 mps 758 mmHg 64%
    09:00 +1°C° 0 mm 2 mps 758 mmHg 61%
    10:00 +2°C° 0 mm 2 mps 758 mmHg 59%
    11:00 +3°C° 0 mm 2 mps 758 mmHg 57%
    12:00 +4°C° 0 mm 2 mps 757 mmHg 55%
    13:00 +4°C° 0 mm 2 mps 757 mmHg 60%
    14:00 +5°C° 0 mm 1 mps 757 mmHg 64%
    15:00 +5°C° 0 mm 1 mps 756 mmHg 69%
    16:00 +4°C° 0 mm 1 mps 756 mmHg 74%
    17:00 +4°C° 0 mm 1 mps 756 mmHg 79%
    18:00 +3°C° 0 mm 1 mps 756 mmHg 84%
    19:00 +3°C° 0 mm 1 mps 756 mmHg 85%
    20:00 +3°C° 0 mm 1 mps 756 mmHg 87%
    21:00 +3°C° 0 mm 1 mps 756 mmHg 89%
    22:00 +3°C° 0 mm 1 mps 756 mmHg 89%
    23:00 +2°C° 0 mm 2 mps 756 mmHg 89%

    Tomorrow, 26 January, Sunday

    Time Temperature Precipitation Wind Pressure Humidity
    00:00 +2°C° 0 mm 2 mps 756 mmHg 90%
    01:00 +2°C° 0 mm 2 mps 755 mmHg 90%
    02:00 +2°C° 0 mm 2 mps 755 mmHg 90%
    03:00 +2°C° 0 mm 2 mps 755 mmHg 90%
    04:00 +2°C° 0 mm 2 mps 754 mmHg 90%
    05:00 +2°C° 0 mm 2 mps 754 mmHg 90%
    06:00 +2°C° 0 mm 2 mps 754 mmHg 91%
    07:00 +2°C° 0 mm 2 mps 754 mmHg 88%
    08:00 +3°C° 0 mm 2 mps 754 mmHg 86%
    09:00 +3°C° 0 mm 2 mps 754 mmHg 84%
    10:00 +4°C° 0 mm 3 mps 754 mmHg 80%
    11:00 +5°C° 0 mm 3 mps 754 mmHg 76%
    12:00 +7°C° 0 mm 3 mps 753 mmHg 72%
    13:00 +7°C° 0 mm 3 mps 753 mmHg 74%
    14:00 +7°C° 0 mm 3 mps 753 mmHg 77%
    15:00 +7°C° 0 mm 3 mps 752 mmHg 79%
    16:00 +5°C° 0 mm 3 mps 752 mmHg 82%
    17:00 +4°C° 0 mm 3 mps 752 mmHg 85%
    18:00 +3°C° 0 mm 3 mps 752 mmHg 88%
    19:00 +3°C° 0 mm 3 mps 752 mmHg 88%
    20:00 +4°C° 0 mm 3 mps 752 mmHg 89%
    21:00 +4°C° 0 mm 3 mps 752 mmHg 90%
    22:00 +4°C° 0 mm 3 mps 752 mmHg 89%
    23:00 +4°C° 0 mm 4 mps 751 mmHg 89%

    Day after tomorrow, 27 January, Monday

    Time Temperature Precipitation Wind Pressure Humidity
    00:00 +4°C° 0 mm 4 mps 751 mmHg 89%
    01:00 +4°C° 0 mm 4 mps 750 mmHg 88%
    02:00 +4°C° 0 mm 4 mps 750 mmHg 87%
    03:00 +3°C° 0 mm 5 mps 749 mmHg 86%
    04:00 +5°C° 0.4 mm 5 mps 749 mmHg 86%
    05:00 +5°C° 0.4 mm 5 mps 748 mmHg 86%
    06:00 +6°C° 0.4 mm 5 mps 748 mmHg 86%
    07:00 +6°C° 0.3 mm 5 mps 748 mmHg 85%
    08:00 +6°C° 0.3 mm 5 mps 747 mmHg 85%
    09:00 +7°C° 0.3 mm 5 mps 747 mmHg 85%
    10:00 +7°C° 0.2 mm 5 mps 747 mmHg 83%
    11:00 +7°C° 0.2 mm 4 mps 747 mmHg 82%
    12:00 +8°C° 0.2 mm 4 mps 747 mmHg 80%
    13:00 +7°C° 0.3 mm 4 mps 746 mmHg 81%
    14:00 +8°C° 0.3 mm 3 mps 746 mmHg 81%
    15:00 +8°C° 0.3 mm 3 mps 745 mmHg 82%
    16:00 +7°C° 0 mm 3 mps 745 mmHg 82%
    17:00 +7°C° 0 mm 3 mps 745 mmHg 82%
    18:00 +6°C° 0 mm 4 mps 744 mmHg 82%
    19:00 +6°C° 0 mm 4 mps 743 mmHg 84%
    20:00 +5°C° 0 mm 4 mps 743 mmHg 85%
    21:00 +5°C° 0 mm 4 mps 742 mmHg 87%
    22:00 +5°C° 0.3 mm 4 mps 741 mmHg 86%
    23:00 +6°C° 0.3 mm 5 mps 740 mmHg 85%

    28 January, Tuesday

    Time Temperature Precipitation Wind Pressure Humidity
    00:00 +6°C° 0.3 mm 5 mps 739 mmHg 85%
    01:00 +6°C° 0.5 mm 5 mps 738 mmHg 87%
    02:00 +6°C° 0.5 mm 4 mps 737 mmHg 88%
    03:00 +6°C° 0.5 mm 4 mps 736 mmHg 90%
    04:00 +5°C° 2.4 mm 4 mps 735 mmHg 90%
    05:00 +5°C° 2.4 mm 4 mps 734 mmHg 90%
    06:00 +4°C° 2.4 mm 4 mps 734 mmHg 90%
    07:00 +3°C° 0.6 mm 5 mps 734 mmHg 88%
    08:00 +3°C° 0.6 mm 6 mps 735 mmHg 87%
    09:00 +3°C° 0.6 mm 7 mps 735 mmHg 85%
    10:00 +3°C° 0.4 mm 7 mps 736 mmHg 77%
    11:00 +2°C° 0.4 mm 8 mps 737 mmHg 68%
    12:00 +4°C° 0.4 mm 8 mps 738 mmHg 60%
    13:00 +2°C° 0.1 mm 8 mps 739 mmHg 58%
    14:00 +3°C° 0.1 mm 7 mps 740 mmHg 56%
    15:00 +3°C° 0.1 mm 7 mps 740 mmHg 53%
    16:00 +3°C° 0 mm 7 mps 740 mmHg 60%
    17:00 +2°C° 0 mm 7 mps 740 mmHg 67%
    18:00 +2°C° 0 mm 7 mps 740 mmHg 74%
    19:00 +2°C° 0.2 mm 7 mps 740 mmHg 75%
    20:00 +2°C° 0.2 mm 7 mps 740 mmHg 76%
    21:00 +2°C° 0.2 mm 6 mps 739 mmHg 77%
    22:00 +1°C° 1.3 mm 6 mps 738 mmHg 83%
    23:00 +1°C° 1.3 mm 5 mps 737 mmHg 89%

    29 January, Wednesday

    Time Temperature Precipitation Wind Pressure Humidity
    00:00 0°C° 1.3 mm 4 mps 736 mmHg 95%
    01:00 0°C° 2.7 mm 5 mps 737 mmHg 94%
    02:00 -1°C° 2.7 mm 6 mps 737 mmHg 93%
    03:00 -1°C° 2.7 mm 6 mps 737 mmHg 91%
    04:00 -1°C° 0.1 mm 7 mps 738 mmHg 87%
    05:00 -1°C° 0.1 mm 7 mps 740 mmHg 83%
    06:00 -1°C° 0.1 mm 7 mps 741 mmHg 78%
    07:00 -1°C° 0 mm 7 mps 741 mmHg 78%
    08:00 -1°C° 0 mm 7 mps 742 mmHg 78%
    09:00 -1°C° 0 mm 7 mps 743 mmHg 78%
    10:00 -1°C° 0 mm 7 mps 743 mmHg 79%
    11:00 0°C° 0 mm 7 mps 743 mmHg 81%
    12:00 0°C° 0 mm 7 mps 743 mmHg 83%
    13:00 0°C° 0.1 mm 7 mps 743 mmHg 79%
    14:00 0°C° 0.1 mm 7 mps 743 mmHg 76%
    15:00 +2°C° 0.1 mm 7 mps 744 mmHg 73%
    16:00 +1°C° 0.1 mm 6 mps 744 mmHg 74%
    17:00 +1°C° 0.1 mm 6 mps 744 mmHg 76%
    18:00 +1°C° 0.1 mm 5 mps 745 mmHg 78%
    19:00 +1°C° 0 mm 5 mps 745 mmHg 79%
    20:00 0°C° 0 mm 5 mps 746 mmHg 80%
    21:00 0°C° 0 mm 5 mps 746 mmHg 81%
    22:00 0°C° 0 mm 5 mps 747 mmHg 82%
    23:00 0°C° 0 mm 5 mps 747 mmHg 83%

    30 January, Thursday

    Time Temperature Precipitation Wind Pressure Humidity
    00:00 0°C° 0 mm 4 mps 748 mmHg 84%
    01:00 0°C° 0.6 mm 5 mps 747 mmHg 88%
    02:00 +1°C° 0.6 mm 5 mps 747 mmHg 92%
    03:00 +1°C° 0.6 mm 5 mps 746 mmHg 95%
    04:00 +2°C° 1.3 mm 6 mps 746 mmHg 94%
    05:00 +3°C° 1.3 mm 7 mps 746 mmHg 92%
    06:00 +2°C° 1.3 mm 8 mps 746 mmHg 90%
    07:00 +3°C° 1.2 mm 7 mps 746 mmHg 91%
    08:00 +3°C° 1.2 mm 6 mps 747 mmHg 91%
    09:00 +3°C° 1.2 mm 5 mps 747 mmHg 91%
    10:00 +4°C° 0.5 mm 4 mps 748 mmHg 91%
    11:00 +4°C° 0.5 mm 3 mps 748 mmHg 91%
    12:00 +4°C° 0.5 mm 3 mps 749 mmHg 91%
    13:00 +4°C° 0.5 mm 3 mps 749 mmHg 91%
    14:00 +5°C° 0.5 mm 3 mps 749 mmHg 91%
    15:00 +5°C° 0.5 mm 4 mps 748 mmHg 92%
    16:00 +5°C° 0.2 mm 4 mps 749 mmHg 91%
    17:00 +5°C° 0.2 mm 4 mps 749 mmHg 90%
    18:00 +5°C° 0.2 mm 4 mps 749 mmHg 89%
    19:00 +5°C° 0 mm 4 mps 749 mmHg 89%
    20:00 +5°C° 0 mm 4 mps 749 mmHg 89%
    21:00 +5°C° 0 mm 4 mps 749 mmHg 89%
    22:00 +5°C° 0 mm 4 mps 749 mmHg 88%
    23:00 +4°C° 0 mm 4 mps 749 mmHg 87%
    Show more